Weather History for Thermopolis, WY

Change the Weather History Date:

Thursday, November 1, 2012

  Actual Average (KWRL) Record (KWRL)
Temperature  
Mean Temperature 47 °F 39 °F  
Max Temperature 53 °F 53 °F 75 °F (1988)
Min Temperature 41 °F 25 °F 8 °F (1984)
Degree Days  
Heating Degree Days 18 26  
Month to date heating degree days 26  
Since 1 July heating degree days 888  
Cooling Degree Days 0 0  
Month to date cooling degree days 0  
Year to date cooling degree days 535  
Moisture  
Dew Point 23 °F    
Average Humidity 41    
Maximum Humidity 53    
Minimum Humidity 24    
Precipitation  
Precipitation 0.00 in 0.01 in 0.19 in (1973)
Month to date precipitation 0.01  
Year to date precipitation 7.00  
Sea Level Pressure  
Sea Level Pressure 30.08 in    
Wind  
Wind Speed 13 mph ()    
Max Wind Speed 26 mph    
Max Gust Speed 36 mph    
Visibility 10.0 miles    
Events      
T = Trace of Precipitation, MM = Missing Value Source: Averaged Metar Reports

Daily Weather History Graph

Daily Weather History Graph

Search for Another Location

Airport:

Trip Planner

Search our weather history database for the weather conditions in past years. The results will help you decide how hot, cold, wet, or windy it might be!

Date:

Astronomy

Nov. 01, 2012 Rise Set
Actual Time 7:49 AM MDT 6:03 PM MDT
Civil Twilight 7:19 AM MDT 6:33 PM MDT
Nautical Twilight 6:45 AM MDT 7:06 PM MDT
Astronomical Twilight 6:12 AM MDT 7:40 PM MDT
Moon 7:59 PM MDT (11/1) 10:28 AM MDT (11/1)
Length of Visible Light 11h 13m
Length of Day
10h 14m
Waning Gibbous, 92% of the Moon is Illuminated
Nov 1
Waning Gibbous
Nov 6
Last Quarter
Nov 13
New
Nov 20
First Quarter
Nov 28
Full

Hourly Weather History & Observations

Time (MDT) Temp. Windchill Dew Point Humidity Pressure Visibility Wind Dir Wind Speed Gust Speed Precip Events Conditions
12:15 AM 48.2 °F - 23.0 °F 37% 30.20 in 10.0 mi SE 12.7 mph - N/A   Clear
12:35 AM 48.2 °F - 23.0 °F 37% 30.19 in 10.0 mi SE 12.7 mph - N/A   Clear
12:55 AM 46.4 °F 40.7 °F 24.8 °F 43% 30.19 in 10.0 mi SE 12.7 mph - N/A   Clear
1:15 AM 44.6 °F 38.4 °F 26.6 °F 49% 30.18 in 10.0 mi SE 12.7 mph - N/A   Clear
1:35 AM 44.6 °F 37.8 °F 26.6 °F 49% 30.18 in 10.0 mi SE 15.0 mph - N/A   Clear
1:55 AM 44.6 °F 37.4 °F 26.6 °F 49% 30.17 in 10.0 mi SE 16.1 mph - N/A   Clear
2:15 AM 44.6 °F 37.8 °F 26.6 °F 49% 30.16 in 10.0 mi SE 15.0 mph - N/A   Clear
2:35 AM 44.6 °F 38.1 °F 26.6 °F 49% 30.15 in 10.0 mi SE 13.8 mph - N/A   Clear
2:55 AM 44.6 °F 37.8 °F 26.6 °F 49% 30.14 in 10.0 mi SE 15.0 mph 20.7 mph N/A   Clear
3:15 AM 44.6 °F 38.1 °F 26.6 °F 49% 30.14 in 10.0 mi SE 13.8 mph - N/A   Clear
3:35 AM 44.6 °F 37.8 °F 26.6 °F 49% 30.13 in 10.0 mi SE 15.0 mph - N/A   Clear
3:55 AM 42.8 °F 35.8 °F 26.6 °F 53% 30.12 in 10.0 mi SE 13.8 mph 20.7 mph N/A   Clear
4:15 AM 44.6 °F 37.8 °F 24.8 °F 46% 30.12 in 10.0 mi SE 15.0 mph - N/A   Clear
4:35 AM 44.6 °F 38.1 °F 24.8 °F 46% 30.12 in 10.0 mi SE 13.8 mph - N/A   Clear
4:55 AM 44.6 °F 37.8 °F 24.8 °F 46% 30.11 in 10.0 mi ESE 15.0 mph - N/A   Clear
5:15 AM 44.6 °F 38.1 °F 23.0 °F 43% 30.10 in 10.0 mi SE 13.8 mph 23.0 mph N/A   Clear
5:35 AM 44.6 °F 37.4 °F 23.0 °F 43% 30.10 in 10.0 mi SE 16.1 mph 20.7 mph N/A   Clear
5:55 AM 44.6 °F 36.6 °F 23.0 °F 43% 30.10 in 10.0 mi SE 19.6 mph - N/A   Clear
6:15 AM 42.8 °F 35.1 °F 24.8 °F 49% 30.10 in 10.0 mi SE 16.1 mph - N/A   Clear
6:35 AM 42.8 °F 36.2 °F 24.8 °F 49% 30.10 in 10.0 mi SE 12.7 mph - N/A   Clear
6:55 AM 41.0 °F 34.7 °F 24.8 °F 53% 30.10 in 10.0 mi SE 10.4 mph - N/A   Clear
7:15 AM 41.0 °F 34.7 °F 24.8 °F 53% 30.10 in 10.0 mi SE 10.4 mph - N/A   Clear
7:35 AM 42.8 °F 37.0 °F 23.0 °F 46% 30.09 in 10.0 mi ESE 10.4 mph - N/A   Clear
7:55 AM 42.8 °F 37.0 °F 23.0 °F 46% 30.09 in 10.0 mi SE 10.4 mph - N/A   Clear
8:15 AM 42.8 °F 35.4 °F 23.0 °F 46% 30.09 in 10.0 mi ESE 15.0 mph - N/A   Clear
8:35 AM 42.8 °F 35.8 °F 23.0 °F 46% 30.09 in 10.0 mi SE 13.8 mph - N/A   Clear
8:55 AM 42.8 °F 36.6 °F 23.0 °F 46% 30.10 in 10.0 mi SE 11.5 mph - N/A   Clear
9:15 AM 42.8 °F 36.6 °F 24.8 °F 49% 30.09 in 10.0 mi ESE 11.5 mph 19.6 mph N/A   Clear
9:35 AM 41.0 °F 32.8 °F 24.8 °F 53% 30.09 in 10.0 mi SE 16.1 mph - N/A   Clear
9:55 AM 42.8 °F 34.5 °F 24.8 °F 49% 30.08 in 10.0 mi SE 18.4 mph - N/A   Clear
10:15 AM 41.0 °F 32.2 °F 24.8 °F 53% 30.08 in 10.0 mi SE 18.4 mph - N/A   Clear
10:35 AM 42.8 °F 34.5 °F 24.8 °F 49% 30.08 in 10.0 mi SE 18.4 mph - N/A   Clear
10:55 AM 44.6 °F 38.1 °F 23.0 °F 43% 30.08 in 10.0 mi SSE 13.8 mph - N/A   Clear
11:15 AM 44.6 °F 37.4 °F 23.0 °F 43% 30.08 in 10.0 mi SE 16.1 mph - N/A   Clear
11:35 AM 42.8 °F 35.8 °F 23.0 °F 46% 30.08 in 10.0 mi SE 13.8 mph - N/A   Clear
11:55 AM 44.6 °F 38.1 °F 23.0 °F 43% 30.07 in 10.0 mi SE 13.8 mph - N/A   Clear
12:15 PM 44.6 °F 38.1 °F 23.0 °F 43% 30.07 in 10.0 mi SE 13.8 mph - N/A   Clear
12:35 PM 44.6 °F 38.1 °F 23.0 °F 43% 30.06 in 10.0 mi SE 13.8 mph - N/A   Clear
12:55 PM 46.4 °F 41.1 °F 23.0 °F 40% 30.06 in 10.0 mi SE 11.5 mph - N/A   Clear
1:15 PM 46.4 °F 41.1 °F 23.0 °F 40% 30.05 in 10.0 mi SE 11.5 mph - N/A   Clear
1:35 PM 46.4 °F 41.9 °F 23.0 °F 40% 30.04 in 10.0 mi SE 9.2 mph - N/A   Clear
1:55 PM 48.2 °F - 21.2 °F 34% 30.04 in 10.0 mi SE 8.1 mph - N/A   Clear
2:15 PM 50.0 °F - 21.2 °F 32% 30.04 in 10.0 mi SE 8.1 mph - N/A   Clear
2:35 PM 50.0 °F - 21.2 °F 32% 30.03 in 10.0 mi SSE 5.8 mph - N/A   Clear
2:55 PM 51.8 °F - 21.2 °F 30% 30.03 in 10.0 mi SSE 5.8 mph - N/A   Clear
3:15 PM 51.8 °F - 19.4 °F 28% 30.04 in 10.0 mi South 3.5 mph - N/A   Clear
3:35 PM 51.8 °F - 19.4 °F 28% 30.04 in 10.0 mi South 3.5 mph - N/A   Scattered Clouds
3:55 PM 53.6 °F - 17.6 °F 24% 30.04 in 10.0 mi SW 8.1 mph - N/A   Scattered Clouds
4:15 PM 53.6 °F - 17.6 °F 24% 30.04 in 10.0 mi WSW 10.4 mph - N/A   Clear
4:35 PM 51.8 °F - 17.6 °F 26% 30.04 in 10.0 mi WSW 10.4 mph - N/A   Clear
4:55 PM 51.8 °F - 17.6 °F 26% 30.04 in 10.0 mi WSW 15.0 mph - N/A   Clear
5:15 PM 51.8 °F - 19.4 °F 28% 30.04 in 10.0 mi WSW 11.5 mph - N/A   Mostly Cloudy
5:35 PM 51.8 °F - 19.4 °F 28% 30.04 in 10.0 mi WSW 12.7 mph - N/A   Overcast
5:55 PM 50.0 °F - 19.4 °F 30% 30.04 in 10.0 mi WSW 12.7 mph - N/A   Mostly Cloudy
6:15 PM 50.0 °F - 19.4 °F 30% 30.04 in 10.0 mi WSW 15.0 mph 20.7 mph N/A   Scattered Clouds
6:35 PM 50.0 °F - 19.4 °F 30% 30.05 in 10.0 mi WSW 17.3 mph - N/A   Scattered Clouds
6:55 PM 50.0 °F - 19.4 °F 30% 30.05 in 10.0 mi WSW 16.1 mph - N/A   Mostly Cloudy
7:15 PM 50.0 °F - 19.4 °F 30% 30.06 in 10.0 mi SW 15.0 mph - N/A   Overcast
7:35 PM 48.2 °F - 21.2 °F 34% 30.05 in 10.0 mi SW 13.8 mph - N/A   Overcast
7:55 PM 48.2 °F - 21.2 °F 34% 30.05 in 10.0 mi SW 15.0 mph 19.6 mph N/A   Overcast
8:15 PM 48.2 °F - 21.2 °F 34% 30.05 in 10.0 mi WSW 19.6 mph 23.0 mph N/A   Overcast
8:35 PM 46.4 °F 39.0 °F 23.0 °F 40% 30.05 in 10.0 mi SW 19.6 mph 26.5 mph N/A   Overcast
9:15 PM 46.4 °F 38.1 °F 21.2 °F 37% 30.05 in 10.0 mi WSW 24.2 mph - N/A   Overcast
9:35 PM 46.4 °F 37.7 °F 23.0 °F 40% 30.04 in 10.0 mi WSW 26.5 mph 33.4 mph N/A   Overcast
9:55 PM 46.4 °F 39.8 °F 23.0 °F 40% 30.05 in 10.0 mi WSW 16.1 mph 24.2 mph N/A   Overcast
10:15 PM 44.6 °F 37.4 °F 24.8 °F 46% 30.06 in 10.0 mi WSW 16.1 mph - N/A   Overcast
10:35 PM 44.6 °F 35.5 °F 23.0 °F 43% 30.06 in 10.0 mi WSW 25.3 mph 29.9 mph N/A   Overcast
11:15 PM 44.6 °F 35.3 °F 24.8 °F 46% 30.08 in 10.0 mi WSW 26.5 mph 31.1 mph N/A   Scattered Clouds
11:35 PM 44.6 °F 35.3 °F 23.0 °F 43% 30.07 in 10.0 mi WSW 26.5 mph 33.4 mph N/A   Scattered Clouds
11:55 PM 44.6 °F 35.3 °F 21.2 °F 39% 30.08 in 10.0 mi WSW 26.5 mph 35.7 mph N/A   Scattered Clouds